Home   Weather   Syracuse   Past weeks

Flag for USA Past Weather in Syracuse, New York, USA — Yesterday and Last 2 Weeks

Now
36 °F

Fog.


Feels Like: 33 °F
Forecast: 32 / 37 °F
Wind: 3 mph from Southwest

Location: Syracuse Hancock International Airport

Current Time: Jan 19, 2017 at 4:08:24 am

Latest Report: Jan 19, 2017 at 3:01 am


Visibility: 4 mi

Pressure: 30.00 "Hg

Humidity: 100%

Dew Point: 36 °F

Location of SyracuseLocation

Past Weather in Syracuse — Graph

°F

Syracuse Temperature Yesterday

Maximum temperature yesterday: 38 °F (at 1:07 pm)
Minimum temperature yesterday: 34 °F (at 6:54 am)
Average temperature yesterday: 36 °F

High & Low Weather Summary for the Past Weeks

 TemperatureHumidityPressure
High54 °F (Jan 12, 8:54 am)100% (Jan 4, 3:16 am)30.75 "Hg (Jan 4, 3:16 am)
Low7 °F (Jan 9, 12:54 am)39% (Jan 11, 1:54 pm)29.37 "Hg (Jan 4, 3:54 am)
Average27 °F77%30.15 "Hg
* Reported Jan 4 3:16 am — Jan 19 3:01 am, Syracuse, Weather by CustomWeather, © 2017

Note: Actual official high and low records may vary slightly from our data, if they occured in-between our weather recording intervals... More about our weather records

Advertising

Syracuse Weather History for the Previous 24 Hours

Scroll right to see more
 ConditionsComfort  
Time TempWeatherWind HumidityBarometerVisibility
3:01 am
Thu, Jan 19
36 °FFog.3 mph100%30.00 "Hg4 mi
1:54 am35 °FOvercast.3 mph100%30.01 "Hg8 mi
12:54 am35 °FOvercast.3 mph100%30.01 "Hg7 mi
11:54 pm
Wed, Jan 18
36 °FDrizzle. Mostly cloudy.3 mph100%30.00 "Hg7 mi
10:54 pm36 °FDrizzle. Fog.6 mph100%30.00 "Hg6 mi
10:35 pm36 °FDrizzle. Fog.10 mph100%29.99 "Hg2 mi
10:13 pm36 °FDrizzle. Fog.6 mph100%30.00 "Hg2 mi
9:54 pm36 °FDrizzle. Mostly cloudy.8 mph100%30.00 "Hg7 mi
8:54 pm36 °FDrizzle. Fog.7 mph100%30.00 "Hg6 mi
8:20 pm36 °FDrizzle. Fog.6 mph100%29.99 "Hg4 mi
7:54 pm36 °FDrizzle. Fog.7 mph100%30.01 "Hg4 mi
6:54 pm36 °FDrizzle. Fog.6 mph100%30.01 "Hg5 mi
6:42 pm36 °FDrizzle. Fog.7 mph100%30.01 "Hg4 mi
5:54 pm36 °FLight rain. Fog.12 mph100%30.02 "Hg4 mi
4:54 pm36 °FLight rain. Fog.8 mph100%30.01 "Hg4 mi
4:40 pm36 °FLight rain. Fog.9 mph100%30.00 "Hg4 mi
3:54 pm37 °FDrizzle. Fog.8 mph100%29.99 "Hg6 mi
3:32 pm37 °FDrizzle. Fog.7 mph100%29.97 "Hg3 mi
3:17 pm37 °FDrizzle. Fog.9 mph100%29.97 "Hg2 mi
2:54 pm37 °FDrizzle. Fog.7 mph100%29.96 "Hg2 mi
2:40 pm37 °FFog.10 mph100%29.96 "Hg2 mi
2:23 pm37 °FDrizzle. Fog.9 mph100%29.95 "Hg2 mi
1:54 pm37 °FDrizzle. Fog.9 mph100%29.93 "Hg4 mi
1:07 pm38 °FLight rain. Fog.7 mph100%29.92 "Hg6 mi
12:54 pm37 °FLight rain. Fog.9 mph100%29.93 "Hg4 mi
12:29 pm37 °FLight rain. Fog.9 mph100%29.93 "Hg2 mi
12:07 pm37 °FLight rain. Fog.9 mph100%29.94 "Hg2 mi
11:54 am37 °FLight rain. Fog.8 mph100%29.94 "Hg3 mi
10:54 am37 °FDrizzle. Fog.8 mph100%29.95 "Hg2 mi
10:29 am37 °FDrizzle. Fog.7 mph100%29.95 "Hg2 mi
9:54 am37 °FMore clouds than sun.8 mph100%29.93 "Hg10 mi
9:40 am37 °FMore clouds than sun.8 mph100%29.92 "Hg10 mi
9:16 am36 °FLight rain. Fog.3 mph100%29.91 "Hg3 mi
9:03 am36 °FDrizzle. Fog.3 mph100%29.91 "Hg2 mi
8:54 am35 °FDrizzle. Fog.No wind100%29.91 "Hg1 mi
8:27 am34 °FDrizzle. Fog.No wind100%29.91 "Hg1 mi
7:54 am34 °FDrizzle. Fog.No wind100%29.90 "Hg2 mi
7:42 am34 °FDrizzle. Fog.No wind100%29.90 "Hg2 mi
7:26 am34 °FDrizzle. Fog.No wind100%29.89 "Hg2 mi
7:21 am34 °FDrizzle. Fog.No wind100%29.89 "Hg3 mi
6:54 am34 °FLight rain. Fog.No wind100%29.88 "Hg4 mi
5:54 am35 °FLight rain. Fog.3 mph100%29.86 "Hg2 mi
4:56 am35 °FLight rain. Fog.3 mph100%29.84 "Hg3 mi
Weather by CustomWeather, © 2017

See weather overviewHow to use our weather pages